Precipitable_Water
0.28 0.28 0.28 0.28 0.26 0.24 0.24 0.24 0.22 0.20 0.20 0.20 0.20 0.22 0.22 0.22 0.22 0.24 0.26 0.26 0.26 0.26 0.26 0.26 0.28 0.28 0.28 0.28 0.30 0.30 0.32 0.32 0.32 0.32 0.32 0.32 0.34 0.34 0.32 0.30 0.28 0.28 0.28 0.34 0.36 0.36 0.38 0.42 0.46 0.48 0.54 0.56 0.56 0.56 0.56 0.60 0.66 0.70 0.74 0.76 0.77 0.77 0.79 0.81 0.83 0.83 0.85 0.87 0.91 0.95 0.99 1.01 1.03 1.05 1.05 1.07 1.07 1.09 1.09 1.09 1.07 1.09 1.09 1.09 1.11 1.13
0.26 0.26 0.26 0.26 0.24 0.22 0.22 0.22 0.22 0.22 0.22 0.22 0.24 0.26 0.26 0.26 0.26 0.26 0.28 0.28 0.28 0.28 0.28 0.28 0.28 0.28 0.26 0.28 0.28 0.30 0.30 0.30 0.30 0.30 0.32 0.32 0.32 0.32 0.32 0.32 0.34 0.34 0.34 0.38 0.40 0.42 0.42 0.48 0.50 0.50 0.46 0.48 0.50 0.50 0.50 0.56 0.60 0.64 0.68 0.74 0.74 0.74 0.76 0.77 0.81 0.83 0.85 0.87 0.89 0.93 0.95 0.97 0.99 1.01 1.01 1.05 1.05 1.07 1.07 1.07 1.07 1.07 1.07 1.07 1.09 1.11
0.26 0.26 0.24 0.24 0.24 0.22 0.22 0.22 0.24 0.24 0.24 0.24 0.28 0.30 0.30 0.28 0.28 0.28 0.28 0.28 0.28 0.28 0.26 0.26 0.26 0.26 0.24 0.26 0.26 0.28 0.28 0.28 0.28 0.30 0.30 0.30 0.32 0.32 0.34 0.36 0.36 0.38 0.38 0.42 0.44 0.46 0.46 0.44 0.44 0.42 0.40 0.42 0.44 0.48 0.54 0.58 0.62 0.66 0.68 0.68 0.68 0.68 0.68 0.72 0.76 0.79 0.83 0.85 0.89 0.91 0.95 0.97 0.99 0.99 0.99 1.01 1.03 1.03 1.05 1.05 1.05 1.05 1.07 1.07 1.07 1.09
0.26 0.24 0.24 0.24 0.24 0.24 0.22 0.24 0.28 0.28 0.30 0.30 0.32 0.32 0.32 0.30 0.28 0.28 0.26 0.26 0.26 0.24 0.24 0.24 0.24 0.24 0.24 0.24 0.24 0.26 0.26 0.26 0.28 0.28 0.30 0.30 0.32 0.32 0.34 0.36 0.38 0.40 0.42 0.42 0.42 0.44 0.44 0.38 0.38 0.38 0.38 0.40 0.42 0.46 0.54 0.60 0.62 0.66 0.66 0.66 0.68 0.68 0.68 0.70 0.74 0.76 0.79 0.81 0.83 0.87 0.91 0.93 0.95 0.97 0.99 0.99 1.01 1.01 1.03 1.03 1.03 1.05 1.05 1.07 1.07 1.07
0.24 0.24 0.24 0.24 0.24 0.24 0.24 0.30 0.32 0.34 0.36 0.34 0.32 0.30 0.30 0.28 0.26 0.26 0.24 0.24 0.22 0.22 0.22 0.22 0.22 0.24 0.24 0.24 0.24 0.24 0.24 0.26 0.28 0.28 0.30 0.32 0.32 0.34 0.36 0.38 0.40 0.40 0.42 0.38 0.36 0.36 0.36 0.36 0.38 0.38 0.42 0.44 0.44 0.46 0.50 0.54 0.58 0.60 0.62 0.64 0.66 0.68 0.70 0.72 0.74 0.77 0.77 0.79 0.83 0.85 0.89 0.91 0.93 0.95 0.97 0.97 0.97 0.99 0.99 1.01 1.01 1.03 1.03 1.05 1.07 1.07
0.24 0.24 0.26 0.26 0.26 0.28 0.28 0.34 0.36 0.36 0.36 0.34 0.30 0.26 0.26 0.24 0.24 0.22 0.22 0.22 0.22 0.22 0.22 0.22 0.24 0.24 0.24 0.26 0.26 0.26 0.26 0.26 0.28 0.28 0.30 0.32 0.32 0.34 0.36 0.36 0.36 0.36 0.36 0.34 0.34 0.34 0.34 0.38 0.40 0.42 0.44 0.44 0.44 0.46 0.46 0.52 0.54 0.58 0.58 0.60 0.64 0.66 0.68 0.72 0.74 0.77 0.77 0.79 0.81 0.83 0.85 0.87 0.89 0.91 0.93 0.95 0.95 0.97 0.97 0.99 0.99 0.99 1.01 1.03 1.05 1.05
0.24 0.26 0.26 0.28 0.30 0.32 0.34 0.36 0.34 0.34 0.32 0.30 0.26 0.24 0.24 0.22 0.22 0.22 0.22 0.22 0.22 0.22 0.24 0.24 0.24 0.24 0.24 0.24 0.26 0.26 0.26 0.26 0.28 0.28 0.30 0.30 0.32 0.32 0.34 0.34 0.34 0.34 0.34 0.34 0.36 0.38 0.38 0.40 0.42 0.42 0.44 0.42 0.42 0.42 0.42 0.46 0.50 0.52 0.54 0.56 0.60 0.62 0.66 0.72 0.76 0.77 0.77 0.79 0.79 0.81 0.83 0.85 0.87 0.89 0.91 0.91 0.93 0.95 0.95 0.97 0.97 0.97 0.99 1.01 1.01 1.03
0.26 0.26 0.30 0.30 0.32 0.34 0.36 0.32 0.28 0.28 0.26 0.24 0.24 0.22 0.22 0.22 0.22 0.22 0.22 0.22 0.24 0.24 0.24 0.24 0.24 0.24 0.24 0.24 0.24 0.24 0.26 0.26 0.28 0.28 0.28 0.30 0.32 0.32 0.34 0.34 0.34 0.34 0.34 0.36 0.36 0.38 0.38 0.40 0.40 0.40 0.40 0.40 0.40 0.42 0.44 0.46 0.48 0.50 0.54 0.56 0.58 0.60 0.64 0.70 0.74 0.76 0.77 0.77 0.79 0.81 0.83 0.85 0.87 0.89 0.89 0.91 0.91 0.93 0.93 0.93 0.95 0.95 0.95 0.97 0.99 0.99
0.28 0.28 0.32 0.32 0.32 0.32 0.32 0.26 0.24 0.24 0.24 0.24 0.24 0.22 0.22 0.20 0.20 0.22 0.22 0.22 0.24 0.24 0.24 0.24 0.24 0.24 0.24 0.24 0.26 0.26 0.26 0.28 0.28 0.28 0.30 0.32 0.32 0.32 0.34 0.34 0.34 0.34 0.34 0.36 0.36 0.38 0.38 0.38 0.38 0.38 0.38 0.42 0.44 0.46 0.52 0.52 0.54 0.56 0.60 0.60 0.60 0.62 0.66 0.70 0.74 0.76 0.77 0.79 0.79 0.81 0.83 0.85 0.87 0.87 0.87 0.87 0.89 0.89 0.89 0.91 0.91 0.93 0.93 0.95 0.97 0.97
0.30 0.30 0.30 0.30 0.30 0.28 0.26 0.24 0.24 0.24 0.24 0.24 0.24 0.22 0.22 0.22 0.22 0.22 0.22 0.22 0.22 0.24 0.22 0.22 0.22 0.22 0.24 0.26 0.26 0.28 0.28 0.30 0.32 0.32 0.32 0.34 0.36 0.36 0.36 0.36 0.38 0.36 0.36 0.38 0.38 0.38 0.38 0.38 0.38 0.40 0.42 0.46 0.50 0.52 0.54 0.56 0.56 0.56 0.54 0.58 0.60 0.64 0.68 0.70 0.74 0.77 0.79 0.79 0.81 0.83 0.83 0.85 0.85 0.87 0.87 0.85 0.87 0.87 0.87 0.87 0.89 0.91 0.91 0.93 0.95 0.95
0.28 0.28 0.26 0.24 0.24 0.24 0.24 0.24 0.24 0.24 0.24 0.24 0.24 0.22 0.22 0.22 0.22 0.24 0.22 0.22 0.22 0.22 0.20 0.22 0.22 0.24 0.26 0.28 0.28 0.30 0.30 0.32 0.34 0.34 0.36 0.38 0.38 0.38 0.38 0.40 0.40 0.40 0.40 0.40 0.40 0.40 0.38 0.40 0.40 0.42 0.42 0.48 0.52 0.52 0.48 0.48 0.50 0.50 0.48 0.52 0.56 0.62 0.66 0.70 0.74 0.77 0.79 0.81 0.81 0.83 0.83 0.85 0.85 0.85 0.85 0.83 0.83 0.85 0.85 0.87 0.87 0.89 0.89 0.91 0.93 0.93
0.24 0.22 0.22 0.22 0.22 0.22 0.22 0.22 0.22 0.22 0.22 0.22 0.22 0.20 0.22 0.22 0.24 0.24 0.22 0.20 0.20 0.20 0.18 0.22 0.26 0.28 0.30 0.30 0.30 0.32 0.32 0.34 0.34 0.36 0.36 0.40 0.42 0.42 0.42 0.46 0.46 0.46 0.44 0.44 0.42 0.40 0.40 0.42 0.42 0.44 0.44 0.44 0.46 0.46 0.44 0.42 0.42 0.44 0.46 0.52 0.56 0.60 0.66 0.72 0.74 0.77 0.79 0.81 0.81 0.83 0.83 0.85 0.83 0.83 0.81 0.79 0.81 0.81 0.83 0.83 0.85 0.87 0.87 0.89 0.89 0.91
0.20 0.20 0.20 0.20 0.20 0.20 0.20 0.20 0.20 0.20 0.20 0.22 0.22 0.22 0.22 0.22 0.22 0.22 0.20 0.20 0.18 0.18 0.20 0.24 0.26 0.28 0.30 0.32 0.34 0.34 0.34 0.38 0.38 0.40 0.40 0.44 0.46 0.46 0.48 0.48 0.48 0.50 0.48 0.48 0.46 0.44 0.42 0.44 0.44 0.44 0.44 0.40 0.40 0.40 0.40 0.42 0.42 0.46 0.50 0.52 0.56 0.60 0.64 0.68 0.72 0.76 0.77 0.79 0.79 0.81 0.83 0.83 0.81 0.79 0.79 0.77 0.79 0.79 0.81 0.83 0.83 0.85 0.85 0.87 0.87 0.89
0.20 0.20 0.20 0.20 0.20 0.20 0.18 0.18 0.18 0.20 0.20 0.22 0.24 0.24 0.22 0.22 0.22 0.18 0.18 0.18 0.18 0.20 0.24 0.26 0.26 0.28 0.30 0.34 0.36 0.36 0.38 0.40 0.42 0.44 0.44 0.46 0.48 0.48 0.48 0.44 0.44 0.46 0.48 0.44 0.42 0.42 0.42 0.40 0.40 0.40 0.38 0.38 0.38 0.40 0.40 0.44 0.46 0.48 0.52 0.54 0.58 0.62 0.66 0.68 0.72 0.74 0.76 0.77 0.77 0.79 0.79 0.81 0.79 0.76 0.76 0.76 0.76 0.77 0.79 0.81 0.81 0.83 0.83 0.85 0.85 0.87
0.22 0.22 0.20 0.20 0.18 0.18 0.20 0.20 0.22 0.22 0.24 0.24 0.24 0.22 0.22 0.22 0.20 0.18 0.18 0.16 0.18 0.22 0.26 0.26 0.28 0.30 0.34 0.36 0.40 0.40 0.42 0.40 0.40 0.40 0.40 0.38 0.38 0.40 0.42 0.40 0.40 0.40 0.42 0.38 0.38 0.38 0.38 0.38 0.36 0.36 0.36 0.38 0.38 0.40 0.42 0.44 0.46 0.48 0.52 0.54 0.56 0.60 0.62 0.68 0.70 0.72 0.72 0.74 0.74 0.74 0.76 0.76 0.74 0.74 0.74 0.72 0.74 0.76 0.77 0.79 0.79 0.81 0.81 0.83 0.85 0.85
0.22 0.22 0.20 0.20 0.18 0.18 0.20 0.22 0.24 0.24 0.24 0.22 0.22 0.20 0.20 0.18 0.18 0.18 0.18 0.18 0.20 0.22 0.26 0.26 0.26 0.28 0.34 0.36 0.38 0.40 0.40 0.34 0.32 0.32 0.34 0.32 0.32 0.36 0.38 0.36 0.34 0.34 0.36 0.34 0.34 0.34 0.36 0.36 0.36 0.36 0.38 0.40 0.40 0.42 0.44 0.46 0.48 0.50 0.52 0.54 0.56 0.58 0.60 0.64 0.66 0.68 0.68 0.70 0.70 0.70 0.70 0.72 0.70 0.70 0.70 0.70 0.70 0.72 0.77 0.77 0.79 0.79 0.81 0.81 0.83 0.83
0.24 0.22 0.20 0.20 0.18 0.18 0.22 0.24 0.26 0.26 0.24 0.22 0.20 0.20 0.18 0.18 0.18 0.18 0.20 0.20 0.22 0.24 0.26 0.26 0.26 0.26 0.26 0.28 0.28 0.30 0.32 0.30 0.30 0.30 0.30 0.28 0.30 0.32 0.34 0.32 0.32 0.32 0.32 0.32 0.32 0.34 0.34 0.36 0.38 0.38 0.38 0.42 0.42 0.44 0.46 0.48 0.50 0.52 0.52 0.54 0.56 0.58 0.60 0.62 0.64 0.66 0.68 0.68 0.68 0.66 0.68 0.68 0.68 0.66 0.68 0.68 0.70 0.70 0.74 0.74 0.76 0.77 0.77 0.79 0.81 0.81
0.24 0.22 0.20 0.18 0.18 0.20 0.24 0.24 0.24 0.24 0.22 0.20 0.20 0.20 0.20 0.20 0.20 0.20 0.20 0.22 0.24 0.24 0.26 0.26 0.26 0.26 0.24 0.24 0.24 0.26 0.28 0.30 0.28 0.28 0.28 0.26 0.26 0.28 0.34 0.32 0.32 0.32 0.32 0.32 0.34 0.34 0.36 0.38 0.40 0.40 0.42 0.44 0.46 0.48 0.48 0.50 0.52 0.52 0.52 0.54 0.56 0.58 0.62 0.64 0.64 0.64 0.64 0.66 0.66 0.66 0.64 0.66 0.64 0.64 0.66 0.68 0.68 0.70 0.72 0.74 0.76 0.76 0.77 0.77 0.79 0.81
0.22 0.20 0.20 0.18 0.18 0.20 0.24 0.24 0.22 0.22 0.20 0.20 0.20 0.20 0.20 0.20 0.20 0.22 0.20 0.22 0.24 0.26 0.28 0.28 0.28 0.26 0.24 0.24 0.24 0.26 0.28 0.28 0.28 0.28 0.26 0.24 0.26 0.26 0.30 0.30 0.30 0.30 0.30 0.32 0.34 0.36 0.38 0.42 0.44 0.44 0.44 0.50 0.52 0.52 0.52 0.56 0.56 0.56 0.54 0.60 0.62 0.62 0.58 0.58 0.60 0.62 0.62 0.62 0.62 0.62 0.60 0.62 0.60 0.60 0.62 0.64 0.64 0.66 0.68 0.68 0.70 0.74 0.76 0.76 0.77 0.79
0.20 0.20 0.20 0.20 0.22 0.22 0.24 0.24 0.22 0.22 0.20 0.22 0.22 0.22 0.20 0.22 0.22 0.22 0.22 0.24 0.26 0.28 0.32 0.30 0.28 0.26 0.26 0.24 0.26 0.28 0.30 0.28 0.26 0.26 0.24 0.24 0.24 0.26 0.28 0.30 0.30 0.30 0.30 0.34 0.36 0.38 0.40 0.44 0.46 0.48 0.48 0.54 0.58 0.58 0.58 0.60 0.60 0.62 0.62 0.58 0.56 0.56 0.58 0.58 0.60 0.60 0.58 0.58 0.58 0.58 0.56 0.58 0.58 0.58 0.60 0.62 0.62 0.64 0.66 0.68 0.70 0.72 0.74 0.74 0.76 0.77
0.20 0.20 0.22 0.24 0.24 0.24 0.24 0.24 0.24 0.24 0.24 0.24 0.24 0.24 0.22 0.22 0.22 0.24 0.24 0.28 0.30 0.30 0.30 0.28 0.26 0.26 0.26 0.26 0.24 0.26 0.26 0.28 0.26 0.24 0.24 0.26 0.26 0.28 0.30 0.30 0.30 0.32 0.32 0.38 0.40 0.42 0.44 0.48 0.52 0.52 0.54 0.50 0.50 0.54 0.56 0.54 0.54 0.54 0.56 0.56 0.56 0.56 0.54 0.54 0.54 0.54 0.54 0.54 0.54 0.54 0.54 0.54 0.54 0.54 0.56 0.58 0.60 0.62 0.62 0.66 0.68 0.70 0.72 0.74 0.76 0.77
0.22 0.24 0.26 0.26 0.26 0.26 0.26 0.26 0.26 0.26 0.26 0.24 0.24 0.22 0.22 0.22 0.22 0.24 0.24 0.28 0.30 0.28 0.26 0.26 0.26 0.26 0.26 0.26 0.26 0.26 0.28 0.28 0.28 0.26 0.26 0.26 0.26 0.26 0.28 0.32 0.32 0.34 0.34 0.40 0.42 0.46 0.48 0.42 0.42 0.44 0.46 0.46 0.46 0.48 0.50 0.52 0.54 0.54 0.56 0.56 0.56 0.54 0.54 0.54 0.54 0.52 0.52 0.52 0.52 0.52 0.52 0.52 0.52 0.54 0.56 0.58 0.60 0.60 0.62 0.64 0.64 0.66 0.68 0.70 0.72 0.76
0.24 0.26 0.26 0.28 0.28 0.26 0.28 0.26 0.26 0.26 0.26 0.24 0.22 0.22 0.22 0.22 0.24 0.24 0.26 0.26 0.28 0.26 0.26 0.26 0.26 0.26 0.28 0.28 0.28 0.28 0.28 0.28 0.30 0.30 0.28 0.26 0.26 0.26 0.30 0.34 0.36 0.38 0.38 0.34 0.34 0.36 0.38 0.36 0.38 0.40 0.42 0.42 0.42 0.44 0.46 0.50 0.52 0.54 0.54 0.54 0.54 0.54 0.54 0.52 0.52 0.52 0.50 0.50 0.50 0.50 0.50 0.52 0.52 0.54 0.56 0.56 0.58 0.60 0.62 0.62 0.64 0.66 0.68 0.70 0.72 0.76
0.30 0.30 0.30 0.30 0.30 0.28 0.28 0.26 0.26 0.24 0.24 0.22 0.22 0.24 0.24 0.24 0.26 0.26 0.26 0.26 0.26 0.26 0.26 0.26 0.26 0.26 0.26 0.26 0.26 0.26 0.26 0.28 0.30 0.30 0.30 0.28 0.28 0.30 0.32 0.34 0.34 0.32 0.32 0.34 0.34 0.34 0.36 0.36 0.36 0.38 0.40 0.42 0.44 0.46 0.48 0.50 0.52 0.52 0.54 0.52 0.52 0.52 0.52 0.50 0.50 0.50 0.48 0.50 0.50 0.50 0.50 0.50 0.52 0.52 0.54 0.56 0.56 0.58 0.60 0.60 0.62 0.64 0.66 0.66 0.70 0.72
0.32 0.32 0.30 0.30 0.30 0.28 0.26 0.24 0.22 0.22 0.20 0.20 0.22 0.22 0.24 0.26 0.26 0.26 0.26 0.26 0.26 0.24 0.24 0.24 0.24 0.24 0.22 0.22 0.22 0.24 0.26 0.30 0.30 0.30 0.30 0.30 0.30 0.30 0.34 0.34 0.34 0.32 0.32 0.32 0.34 0.34 0.34 0.36 0.38 0.38 0.40 0.42 0.44 0.46 0.48 0.46 0.48 0.50 0.50 0.50 0.48 0.48 0.48 0.48 0.48 0.48 0.48 0.48 0.50 0.50 0.50 0.50 0.52 0.52 0.54 0.56 0.56 0.58 0.58 0.60 0.60 0.62 0.64 0.66 0.68 0.72
0.32 0.32 0.30 0.30 0.28 0.26 0.22 0.20 0.20 0.20 0.20 0.22 0.22 0.24 0.24 0.26 0.26 0.26 0.26 0.26 0.24 0.24 0.24 0.24 0.24 0.22 0.22 0.22 0.22 0.24 0.28 0.30 0.32 0.32 0.32 0.30 0.30 0.32 0.34 0.32 0.32 0.32 0.30 0.32 0.34 0.36 0.36 0.36 0.36 0.38 0.40 0.40 0.40 0.42 0.44 0.42 0.44 0.46 0.48 0.48 0.48 0.48 0.48 0.48 0.48 0.48 0.46 0.48 0.48 0.48 0.48 0.50 0.50 0.52 0.54 0.54 0.56 0.56 0.56 0.58 0.58 0.60 0.62 0.64 0.66 0.70
0.30 0.28 0.28 0.26 0.24 0.22 0.18 0.18 0.18 0.20 0.20 0.22 0.24 0.26 0.26 0.26 0.26 0.24 0.24 0.24 0.26 0.26 0.26 0.24 0.24 0.22 0.22 0.22 0.22 0.24 0.26 0.30 0.32 0.34 0.34 0.32 0.30 0.30 0.30 0.32 0.32 0.32 0.32 0.32 0.34 0.36 0.36 0.34 0.34 0.36 0.36 0.38 0.38 0.40 0.40 0.44 0.46 0.46 0.48 0.46 0.46 0.46 0.48 0.46 0.46 0.46 0.46 0.46 0.48 0.48 0.50 0.50 0.52 0.52 0.54 0.54 0.56 0.56 0.56 0.58 0.58 0.60 0.60 0.64 0.66 0.70
0.24 0.22 0.22 0.22 0.20 0.18 0.18 0.18 0.18 0.20 0.22 0.24 0.24 0.26 0.28 0.28 0.24 0.22 0.24 0.24 0.26 0.26 0.26 0.24 0.22 0.22 0.22 0.22 0.22 0.24 0.28 0.28 0.30 0.32 0.34 0.32 0.30 0.30 0.30 0.32 0.32 0.32 0.32 0.32 0.32 0.32 0.34 0.34 0.34 0.34 0.36 0.38 0.40 0.42 0.44 0.46 0.46 0.46 0.46 0.46 0.46 0.46 0.46 0.44 0.44 0.44 0.46 0.46 0.48 0.50 0.52 0.52 0.52 0.54 0.54 0.54 0.54 0.56 0.56 0.56 0.58 0.58 0.60 0.62 0.64 0.68
0.20 0.20 0.18 0.18 0.18 0.18 0.18 0.18 0.20 0.20 0.22 0.22 0.24 0.26 0.26 0.28 0.26 0.24 0.26 0.28 0.28 0.28 0.26 0.24 0.24 0.22 0.22 0.24 0.24 0.26 0.26 0.28 0.30 0.32 0.34 0.32 0.30 0.30 0.30 0.32 0.32 0.32 0.32 0.30 0.30 0.30 0.32 0.32 0.34 0.34 0.36 0.40 0.42 0.44 0.46 0.46 0.46 0.46 0.46 0.46 0.44 0.44 0.44 0.44 0.44 0.44 0.46 0.48 0.50 0.52 0.54 0.54 0.54 0.54 0.54 0.54 0.54 0.56 0.56 0.56 0.56 0.58 0.58 0.60 0.62 0.64
0.16 0.16 0.16 0.16 0.18 0.18 0.18 0.20 0.20 0.20 0.22 0.24 0.24 0.26 0.28 0.28 0.28 0.28 0.28 0.30 0.30 0.28 0.26 0.26 0.24 0.24 0.24 0.24 0.24 0.24 0.24 0.26 0.30 0.32 0.34 0.32 0.30 0.30 0.30 0.30 0.30 0.32 0.32 0.30 0.28 0.28 0.30 0.32 0.34 0.36 0.38 0.38 0.40 0.42 0.44 0.42 0.44 0.44 0.44 0.44 0.44 0.44 0.44 0.46 0.46 0.46 0.48 0.50 0.52 0.54 0.56 0.56 0.56 0.56 0.56 0.56 0.56 0.56 0.56 0.56 0.56 0.58 0.58 0.60 0.62 0.64
0.16 0.16 0.16 0.16 0.18 0.18 0.20 0.20 0.20 0.22 0.22 0.24 0.26 0.26 0.28 0.28 0.30 0.30 0.32 0.32 0.30 0.28 0.26 0.26 0.24 0.24 0.24 0.24 0.24 0.22 0.22 0.26 0.28 0.32 0.34 0.32 0.30 0.30 0.30 0.30 0.30 0.30 0.32 0.32 0.30 0.26 0.26 0.28 0.32 0.34 0.36 0.36 0.36 0.38 0.40 0.40 0.42 0.42 0.44 0.44 0.44 0.44 0.44 0.46 0.48 0.48 0.50 0.54 0.54 0.56 0.56 0.56 0.56 0.56 0.56 0.56 0.56 0.56 0.58 0.58 0.58 0.58 0.58 0.60 0.60 0.62
0.16 0.16 0.16 0.16 0.18 0.18 0.18 0.20 0.20 0.20 0.22 0.24 0.24 0.26 0.28 0.30 0.32 0.32 0.32 0.32 0.30 0.28 0.26 0.26 0.26 0.26 0.26 0.26 0.24 0.24 0.26 0.28 0.30 0.32 0.34 0.32 0.30 0.30 0.30 0.30 0.30 0.30 0.32 0.32 0.30 0.28 0.24 0.26 0.28 0.32 0.34 0.34 0.34 0.36 0.38 0.40 0.40 0.42 0.44 0.44 0.44 0.44 0.46 0.48 0.50 0.52 0.52 0.56 0.58 0.58 0.58 0.58 0.58 0.58 0.58 0.58 0.58 0.58 0.60 0.60 0.60 0.62 0.62 0.60 0.62 0.64
0.16 0.16 0.18 0.18 0.18 0.18 0.20 0.20 0.20 0.22 0.22 0.24 0.24 0.26 0.28 0.30 0.32 0.32 0.32 0.32 0.30 0.28 0.28 0.26 0.26 0.26 0.26 0.26 0.26 0.26 0.26 0.28 0.30 0.32 0.34 0.32 0.32 0.30 0.30 0.30 0.30 0.30 0.32 0.32 0.32 0.30 0.28 0.28 0.30 0.32 0.32 0.34 0.34 0.36 0.38 0.40 0.42 0.42 0.44 0.44 0.44 0.44 0.46 0.48 0.50 0.52 0.54 0.56 0.56 0.58 0.58 0.58 0.60 0.60 0.60 0.60 0.60 0.60 0.62 0.62 0.64 0.66 0.64 0.64 0.64 0.66
0.16 0.16 0.18 0.18 0.18 0.18 0.20 0.20 0.20 0.22 0.22 0.24 0.24 0.26 0.28 0.28 0.30 0.30 0.30 0.30 0.30 0.30 0.30 0.28 0.28 0.26 0.28 0.26 0.26 0.26 0.26 0.28 0.30 0.32 0.34 0.34 0.32 0.30 0.30 0.30 0.30 0.30 0.30 0.30 0.30 0.30 0.30 0.30 0.30 0.30 0.30 0.32 0.34 0.36 0.36 0.38 0.40 0.42 0.44 0.44 0.44 0.44 0.46 0.48 0.50 0.52 0.52 0.54 0.56 0.56 0.58 0.58 0.60 0.60 0.62 0.62 0.64 0.64 0.66 0.66 0.66 0.68 0.68 0.68 0.68 0.68
0.16 0.16 0.16 0.18 0.18 0.18 0.18 0.20 0.20 0.22 0.22 0.24 0.26 0.26 0.28 0.28 0.28 0.30 0.30 0.30 0.30 0.30 0.30 0.30 0.30 0.28 0.30 0.28 0.26 0.26 0.28 0.30 0.32 0.34 0.34 0.34 0.32 0.30 0.30 0.30 0.30 0.30 0.30 0.30 0.30 0.30 0.30 0.30 0.30 0.30 0.30 0.32 0.32 0.34 0.36 0.38 0.40 0.42 0.44 0.44 0.46 0.46 0.46 0.48 0.50 0.52 0.52 0.54 0.54 0.56 0.58 0.58 0.60 0.62 0.62 0.64 0.66 0.66 0.68 0.68 0.68 0.68 0.70 0.70 0.70 0.70
0.16 0.16 0.16 0.16 0.18 0.18 0.18 0.20 0.20 0.22 0.22 0.24 0.24 0.26 0.26 0.28 0.28 0.28 0.30 0.30 0.30 0.30 0.32 0.32 0.32 0.32 0.34 0.32 0.30 0.30 0.30 0.32 0.34 0.34 0.36 0.34 0.32 0.30 0.30 0.30 0.30 0.30 0.30 0.30 0.30 0.30 0.28 0.30 0.30 0.30 0.30 0.30 0.30 0.32 0.34 0.38 0.40 0.42 0.42 0.44 0.44 0.46 0.46 0.48 0.50 0.52 0.52 0.52 0.54 0.54 0.56 0.58 0.58 0.60 0.62 0.64 0.66 0.66 0.68 0.68 0.68 0.70 0.70 0.70 0.72 0.72
0.16 0.16 0.16 0.18 0.18 0.18 0.20 0.20 0.20 0.22 0.24 0.24 0.24 0.26 0.26 0.28 0.28 0.30 0.30 0.30 0.30 0.32 0.32 0.32 0.34 0.34 0.36 0.34 0.34 0.32 0.34 0.34 0.34 0.36 0.36 0.36 0.34 0.32 0.30 0.32 0.32 0.32 0.32 0.30 0.30 0.30 0.30 0.30 0.30 0.30 0.30 0.30 0.30 0.32 0.34 0.36 0.38 0.40 0.42 0.42 0.44 0.46 0.46 0.48 0.50 0.52 0.52 0.52 0.52 0.54 0.56 0.58 0.58 0.60 0.62 0.64 0.66 0.66 0.66 0.68 0.68 0.70 0.70 0.70 0.70 0.72
0.16 0.16 0.16 0.18 0.18 0.20 0.20 0.20 0.22 0.22 0.24 0.26 0.26 0.26 0.28 0.28 0.30 0.30 0.30 0.30 0.32 0.32 0.32 0.34 0.34 0.36 0.36 0.34 0.34 0.34 0.34 0.34 0.36 0.36 0.36 0.36 0.34 0.34 0.32 0.32 0.32 0.32 0.32 0.32 0.32 0.30 0.30 0.28 0.28 0.28 0.30 0.30 0.32 0.34 0.34 0.36 0.38 0.40 0.40 0.42 0.44 0.46 0.46 0.48 0.50 0.52 0.52 0.52 0.54 0.54 0.54 0.56 0.58 0.58 0.60 0.62 0.62 0.64 0.64 0.64 0.66 0.68 0.68 0.68 0.70 0.70
0.16 0.16 0.18 0.18 0.20 0.20 0.22 0.22 0.22 0.24 0.26 0.26 0.28 0.28 0.28 0.30 0.30 0.30 0.30 0.32 0.32 0.34 0.34 0.34 0.34 0.34 0.34 0.34 0.34 0.34 0.34 0.36 0.36 0.36 0.36 0.36 0.36 0.34 0.32 0.32 0.32 0.34 0.34 0.34 0.32 0.32 0.30 0.28 0.28 0.28 0.28 0.30 0.30 0.32 0.34 0.36 0.36 0.38 0.40 0.42 0.42 0.44 0.46 0.46 0.48 0.50 0.52 0.52 0.52 0.54 0.54 0.56 0.58 0.58 0.60 0.60 0.60 0.62 0.60 0.62 0.64 0.66 0.66 0.66 0.68 0.70
0.18 0.18 0.18 0.20 0.22 0.22 0.22 0.24 0.24 0.26 0.26 0.28 0.28 0.28 0.28 0.30 0.30 0.30 0.30 0.32 0.32 0.32 0.34 0.34 0.34 0.34 0.34 0.34 0.34 0.34 0.34 0.36 0.36 0.36 0.36 0.36 0.36 0.36 0.36 0.34 0.34 0.34 0.34 0.34 0.34 0.32 0.32 0.30 0.30 0.30 0.30 0.30 0.32 0.32 0.34 0.36 0.36 0.38 0.40 0.40 0.40 0.42 0.44 0.46 0.48 0.50 0.52 0.52 0.54 0.54 0.54 0.56 0.58 0.58 0.60 0.60 0.60 0.60 0.60 0.60 0.60 0.62 0.64 0.64 0.66 0.66
0.18 0.18 0.20 0.22 0.24 0.24 0.24 0.26 0.26 0.26 0.28 0.28 0.28 0.28 0.28 0.28 0.28 0.30 0.30 0.30 0.32 0.32 0.34 0.34 0.34 0.34 0.32 0.34 0.34 0.34 0.34 0.36 0.36 0.36 0.36 0.36 0.36 0.36 0.36 0.36 0.34 0.34 0.34 0.34 0.32 0.32 0.32 0.32 0.32 0.32 0.32 0.32 0.32 0.34 0.34 0.36 0.38 0.40 0.38 0.38 0.40 0.42 0.44 0.46 0.48 0.50 0.50 0.52 0.52 0.54 0.54 0.56 0.56 0.58 0.58 0.58 0.58 0.58 0.60 0.60 0.60 0.62 0.64 0.66 0.66 0.66
0.20 0.20 0.22 0.24 0.24 0.26 0.26 0.26 0.28 0.28 0.28 0.28 0.28 0.28 0.28 0.28 0.28 0.28 0.30 0.30 0.30 0.32 0.32 0.32 0.32 0.32 0.30 0.32 0.34 0.34 0.34 0.36 0.36 0.36 0.36 0.38 0.38 0.36 0.36 0.36 0.34 0.34 0.34 0.34 0.32 0.32 0.32 0.32 0.32 0.32 0.32 0.32 0.34 0.34 0.34 0.36 0.38 0.40 0.40 0.38 0.40 0.40 0.42 0.44 0.46 0.48 0.50 0.52 0.52 0.54 0.54 0.56 0.56 0.56 0.58 0.58 0.58 0.60 0.60 0.60 0.62 0.62 0.64 0.64 0.66 0.68
0.22 0.22 0.24 0.26 0.26 0.26 0.28 0.28 0.28 0.28 0.28 0.28 0.28 0.28 0.28 0.28 0.30 0.28 0.28 0.30 0.30 0.32 0.32 0.32 0.32 0.30 0.30 0.30 0.30 0.32 0.32 0.34 0.36 0.36 0.38 0.38 0.38 0.38 0.36 0.36 0.36 0.36 0.34 0.34 0.32 0.32 0.34 0.34 0.34 0.34 0.34 0.34 0.34 0.34 0.34 0.36 0.38 0.38 0.40 0.40 0.40 0.38 0.38 0.42 0.46 0.48 0.50 0.50 0.52 0.54 0.54 0.54 0.56 0.56 0.56 0.56 0.56 0.58 0.58 0.60 0.60 0.62 0.64 0.66 0.66 0.68
0.22 0.24 0.24 0.26 0.26 0.26 0.26 0.26 0.28 0.28 0.28 0.28 0.28 0.28 0.28 0.28 0.30 0.30 0.30 0.30 0.30 0.32 0.32 0.32 0.30 0.30 0.30 0.30 0.30 0.30 0.32 0.34 0.36 0.38 0.38 0.38 0.38 0.36 0.36 0.36 0.36 0.36 0.36 0.34 0.32 0.32 0.32 0.34 0.34 0.34 0.36 0.36 0.36 0.36 0.36 0.36 0.38 0.38 0.40 0.40 0.40 0.38 0.38 0.38 0.42 0.46 0.48 0.50 0.52 0.52 0.54 0.54 0.54 0.56 0.56 0.56 0.56 0.56 0.58 0.58 0.60 0.62 0.66 0.66 0.68 0.68
0.24 0.24 0.26 0.26 0.26 0.26 0.26 0.26 0.26 0.26 0.28 0.28 0.28 0.28 0.28 0.30 0.30 0.30 0.30 0.30 0.30 0.30 0.30 0.30 0.30 0.30 0.28 0.28 0.30 0.30 0.32 0.34 0.34 0.36 0.38 0.38 0.38 0.38 0.36 0.36 0.36 0.36 0.36 0.34 0.34 0.34 0.32 0.34 0.34 0.36 0.36 0.36 0.36 0.36 0.36 0.36 0.38 0.38 0.38 0.40 0.40 0.40 0.40 0.42 0.44 0.48 0.48 0.50 0.50 0.52 0.54 0.54 0.54 0.54 0.54 0.52 0.54 0.56 0.56 0.56 0.58 0.60 0.62 0.64 0.66 0.66
0.26 0.26 0.26 0.26 0.26 0.26 0.26 0.26 0.26 0.26 0.28 0.28 0.28 0.28 0.28 0.30 0.30 0.30 0.30 0.30 0.30 0.30 0.30 0.30 0.30 0.28 0.28 0.28 0.30 0.30 0.32 0.32 0.34 0.34 0.34 0.34 0.36 0.36 0.38 0.38 0.38 0.38 0.36 0.36 0.36 0.36 0.36 0.34 0.34 0.36 0.36 0.36 0.36 0.38 0.38 0.38 0.38 0.38 0.38 0.40 0.40 0.40 0.42 0.44 0.46 0.48 0.48 0.50 0.50 0.52 0.52 0.52 0.52 0.52 0.50 0.50 0.50 0.52 0.54 0.58 0.58 0.60 0.62 0.64 0.64 0.66
0.26 0.26 0.26 0.26 0.26 0.26 0.26 0.26 0.26 0.26 0.26 0.28 0.28 0.28 0.28 0.30 0.30 0.30 0.30 0.32 0.32 0.30 0.30 0.30 0.30 0.30 0.28 0.30 0.30 0.30 0.30 0.30 0.32 0.32 0.34 0.34 0.36 0.36 0.38 0.38 0.38 0.38 0.38 0.38 0.38 0.38 0.38 0.36 0.36 0.36 0.36 0.36 0.36 0.36 0.38 0.38 0.38 0.38 0.40 0.40 0.40 0.40 0.40 0.42 0.44 0.46 0.48 0.48 0.50 0.50 0.52 0.52 0.50 0.50 0.50 0.50 0.50 0.52 0.54 0.58 0.58 0.60 0.62 0.62 0.62 0.62
0.26 0.26 0.26 0.26 0.26 0.26 0.26 0.26 0.26 0.26 0.26 0.26 0.28 0.28 0.28 0.30 0.30 0.30 0.30 0.32 0.30 0.30 0.30 0.30 0.30 0.30 0.30 0.30 0.30 0.30 0.32 0.32 0.32 0.32 0.34 0.34 0.34 0.36 0.36 0.38 0.38 0.38 0.38 0.38 0.38 0.38 0.38 0.38 0.38 0.38 0.38 0.38 0.36 0.36 0.36 0.38 0.38 0.40 0.40 0.40 0.40 0.40 0.40 0.42 0.44 0.48 0.48 0.48 0.50 0.50 0.50 0.50 0.50 0.48 0.48 0.48 0.48 0.50 0.52 0.54 0.56 0.58 0.60 0.60 0.62 0.62
0.26 0.26 0.26 0.26 0.26 0.26 0.26 0.26 0.26 0.28 0.28 0.28 0.28 0.28 0.30 0.30 0.32 0.32 0.30 0.30 0.30 0.30 0.30 0.30 0.30 0.30 0.30 0.30 0.32 0.32 0.32 0.32 0.32 0.32 0.34 0.34 0.34 0.36 0.36 0.36 0.36 0.38 0.38 0.38 0.38 0.40 0.40 0.40 0.40 0.42 0.42 0.38 0.38 0.38 0.36 0.38 0.38 0.40 0.40 0.40 0.40 0.40 0.42 0.42 0.44 0.46 0.48 0.48 0.48 0.50 0.50 0.50 0.50 0.50 0.48 0.48 0.48 0.50 0.52 0.52 0.54 0.56 0.58 0.60 0.60 0.62
0.26 0.26 0.26 0.26 0.26 0.26 0.26 0.28 0.28 0.28 0.28 0.28 0.28 0.28 0.30 0.30 0.32 0.32 0.32 0.32 0.30 0.30 0.30 0.30 0.30 0.30 0.30 0.30 0.30 0.32 0.32 0.32 0.32 0.32 0.32 0.34 0.34 0.36 0.36 0.36 0.36 0.36 0.38 0.38 0.38 0.38 0.38 0.40 0.40 0.42 0.42 0.42 0.40 0.40 0.38 0.38 0.40 0.40 0.40 0.40 0.40 0.42 0.42 0.42 0.44 0.46 0.46 0.48 0.48 0.48 0.50 0.50 0.50 0.50 0.50 0.48 0.48 0.48 0.50 0.50 0.50 0.52 0.56 0.58 0.58 0.60
0.26 0.26 0.28 0.28 0.28 0.28 0.28 0.28 0.28 0.28 0.28 0.28 0.28 0.30 0.30 0.30 0.30 0.30 0.32 0.32 0.30 0.30 0.32 0.32 0.32 0.32 0.30 0.32 0.32 0.32 0.32 0.32 0.32 0.32 0.34 0.34 0.34 0.36 0.36 0.36 0.36 0.36 0.36 0.36 0.36 0.36 0.36 0.36 0.38 0.38 0.38 0.42 0.44 0.44 0.42 0.40 0.40 0.40 0.40 0.40 0.40 0.42 0.42 0.42 0.44 0.46 0.46 0.48 0.48 0.48 0.48 0.48 0.48 0.48 0.48 0.48 0.48 0.46 0.48 0.48 0.50 0.52 0.54 0.56 0.56 0.58
Wind_Speed
53 53 53 53 54 54 54 54 54 55 55 55 55 55 55 55 55 56 56 56 56 56 56 56 56 56 56 55 54 54 53 53 53 52 51 51 50 50 50 49 49 49 48 48 47 47 47 47 47 48 48 49 50 51 52 53 54 55 55 54 54 53 53 53 54 55 56 56 55 55 54 54 53 52 50 49 49 49 49 50 50 51 51 51 51 51
51 51 51 51 52 52 52 52 52 52 52 52 52 52 53 53 54 54 54 55 55 55 55 55 55 55 55 55 54 54 53 53 53 52 52 51 51 50 50 50 49 48 47 47 46 46 45 45 46 46 47 48 48 49 50 51 52 53 54 54 54 53 53 53 53 53 54 55 55 54 53 53 53 53 52 51 50 49 49 49 49 50 50 50 50 50
49 49 49 49 49 49 49 49 49 49 49 49 50 50 51 52 52 53 53 53 54 54 54 54 54 54 55 54 54 54 53 53 52 52 51 51 51 51 50 50 49 49 48 47 46 46 45 45 45 46 46 47 47 47 48 49 50 51 52 53 53 54 54 53 53 52 52 53 53 53 53 52 52 52 52 52 51 50 49 48 48 48 49 49 49 49
46 47 47 47 47 47 47 47 47 47 47 47 48 49 50 50 51 52 52 53 53 53 53 54 54 54 53 53 53 53 52 52 52 51 51 51 51 51 51 50 49 49 48 47 47 47 46 46 45 45 45 45 46 46 46 47 48 49 51 51 52 53 53 53 52 51 51 51 52 52 52 51 50 50 50 51 51 50 49 49 48 47 47 48 48 48
45 45 46 46 46 46 46 46 45 45 45 46 47 48 49 50 50 51 52 52 52 52 52 52 52 52 52 51 51 52 52 51 51 51 50 50 50 50 49 49 48 48 48 48 48 48 47 46 45 45 44 44 45 45 45 46 47 48 49 50 51 51 52 52 51 51 50 50 50 51 51 51 50 49 49 49 49 50 50 49 49 48 47 47 46 46
45 45 46 46 46 46 45 44 44 44 45 46 47 48 49 49 50 50 51 51 51 51 51 50 50 50 50 50 50 50 50 50 50 49 49 49 48 48 48 47 47 47 48 48 48 47 47 46 45 45 44 44 44 45 45 46 46 47 48 48 49 50 50 50 51 50 50 50 50 50 50 50 50 49 48 48 48 48 49 49 49 49 48 47 46 45
46 46 46 46 45 45 44 43 43 44 45 47 48 49 49 49 49 49 49 49 49 49 49 49 49 48 48 48 48 48 47 47 47 47 47 47 46 46 46 46 46 47 47 47 47 47 46 46 46 45 45 44 44 45 45 45 46 46 47 47 48 48 48 49 49 50 50 49 49 49 49 49 49 49 48 48 47 47 48 49 49 49 49 48 46 45
47 47 46 45 44 43 43 43 43 44 46 47 48 49 49 48 48 48 48 48 47 47 46 46 46 45 44 44 44 44 44 44 44 44 44 44 44 45 45 45 46 46 46 46 46 46 46 46 46 46 45 45 44 44 44 44 45 45 46 46 46 47 47 47 48 48 49 49 49 48 48 48 48 48 48 47 47 47 47 48 48 49 49 48 47 45
46 46 45 44 43 43 44 44 45 46 46 46 47 47 48 48 47 47 46 45 44 44 43 43 42 42 41 41 41 41 41 41 42 42 42 42 43 43 44 45 45 46 46 46 46 46 46 46 45 45 45 44 43 43 42 43 43 44 44 44 45 45 45 46 46 47 47 48 47 47 47 47 47 47 47 47 47 46 46 47 47 48 48 48 47 46
44 44 44 43 43 44 45 46 47 46 46 46 46 46 46 46 46 45 44 43 42 41 40 39 39 39 39 38 38 39 39 40 41 41 42 42 43 43 44 44 44 44 45 45 45 45 45 45 44 44 44 43 42 42 42 42 43 43 44 43 43 43 43 44 44 45 46 46 46 46 46 46 46 46 46 46 46 46 46 46 46 47 47 47 47 46
44 44 44 45 45 45 46 46 46 46 46 46 45 45 44 43 43 42 42 41 40 39 38 37 37 37 37 37 37 37 38 39 39 40 41 41 42 42 43 43 43 43 44 44 44 44 44 43 43 43 43 42 42 42 42 43 43 44 44 44 43 42 42 42 42 43 44 44 44 44 44 44 45 45 45 45 45 45 45 45 46 46 47 47 47 47
44 44 45 45 45 46 46 46 46 45 45 44 43 43 42 41 40 40 40 39 38 37 36 35 35 35 35 36 36 36 37 37 38 38 39 39 39 40 40 40 40 40 41 41 41 41 41 42 42 42 42 42 42 43 43 43 44 44 44 44 43 42 41 40 40 41 41 42 42 43 43 43 43 43 44 44 44 44 44 45 45 45 46 46 47 47
44 44 44 44 44 44 44 45 44 44 42 41 40 40 40 40 39 39 38 38 37 36 35 34 34 34 35 35 36 36 36 37 37 37 37 37 37 37 37 37 37 37 38 38 38 38 39 39 40 40 41 42 42 43 43 43 43 43 43 43 42 42 41 40 39 39 39 40 40 41 41 41 42 42 43 43 43 43 44 44 44 45 45 45 46 46
43 43 43 43 43 43 43 43 42 41 40 39 39 39 39 39 39 38 37 37 35 34 34 34 34 35 35 35 35 35 35 35 35 35 35 35 35 35 36 37 37 38 38 38 37 37 37 38 38 39 40 41 42 42 42 41 41 41 41 41 41 41 40 40 39 39 38 38 38 39 39 40 41 41 42 42 43 43 43 43 44 44 44 44 45 46
42 42 42 42 42 42 42 41 40 39 39 39 39 39 39 39 38 37 36 34 34 33 33 34 34 35 34 33 33 33 33 33 34 34 35 35 36 36 36 37 37 37 37 37 37 36 36 36 37 38 39 40 40 40 40 40 40 40 40 40 40 40 39 39 39 39 38 38 38 38 38 38 39 40 41 42 42 42 43 43 43 43 43 43 44 44
42 42 41 41 41 41 41 40 39 38 38 39 39 39 39 38 37 35 34 33 32 32 32 32 33 32 32 31 30 31 32 33 34 35 36 36 36 35 35 36 36 36 36 35 35 35 35 36 36 37 37 38 39 39 39 39 39 40 39 39 39 39 39 39 39 38 38 38 38 38 38 38 38 39 40 40 41 42 42 42 43 43 43 43 43 43
41 41 41 42 41 41 41 39 38 38 38 39 39 39 38 37 36 34 33 32 32 32 32 31 30 30 29 30 30 30 31 33 34 34 35 35 35 34 34 34 35 35 35 35 35 35 35 35 35 35 36 36 37 37 38 38 39 39 39 39 39 38 38 38 38 38 38 38 38 38 38 38 37 38 38 39 39 40 41 41 42 42 42 42 42 42
41 42 42 42 41 40 39 38 38 38 39 39 39 38 37 36 35 34 33 32 32 32 31 30 29 28 28 29 30 30 30 31 32 33 33 34 34 33 33 33 34 34 34 34 34 34 34 34 34 34 34 35 35 36 37 38 38 38 38 38 38 38 38 38 38 38 38 38 38 38 38 38 37 37 37 37 38 38 39 40 40 41 41 41 41 42
42 42 42 41 41 40 38 38 38 38 38 38 38 38 37 36 35 34 33 33 33 32 31 29 28 28 29 30 31 31 30 30 31 32 32 32 32 32 31 32 32 33 33 33 33 33 33 33 33 33 33 33 33 34 34 35 36 36 37 37 38 38 38 38 38 38 38 38 38 38 38 38 38 38 37 37 37 38 38 39 39 40 40 40 41 41
42 42 41 40 40 39 38 38 38 38 38 38 38 38 37 36 35 34 33 33 33 32 30 29 28 29 31 31 31 31 30 30 30 31 31 31 31 30 30 30 31 32 32 32 32 32 31 31 31 31 31 30 30 31 31 32 33 34 35 37 37 37 37 37 37 38 38 38 38 39 39 39 38 38 38 38 38 38 38 38 39 39 40 40 40 41
42 41 40 39 38 38 38 38 38 38 38 38 38 38 37 36 35 34 33 33 32 31 30 30 30 31 31 31 30 30 29 29 29 30 30 30 29 29 28 29 30 31 31 31 30 29 29 29 29 29 29 30 31 31 32 32 34 35 36 36 37 37 37 37 38 38 38 38 39 39 39 39 39 39 39 38 38 38 38 38 39 39 39 40 40 40
40 40 39 38 38 38 38 38 38 38 38 38 38 37 37 36 35 34 34 33 32 32 31 31 31 31 31 31 30 29 28 28 28 29 28 28 28 28 28 28 29 29 29 28 27 27 28 29 29 30 31 32 32 33 33 33 33 34 35 36 37 37 37 37 38 38 38 38 39 39 39 39 39 39 39 39 38 38 38 38 39 39 39 40 40 40
39 39 38 38 37 37 38 38 38 38 38 38 37 37 36 35 35 35 34 34 33 32 32 32 32 31 30 29 28 27 26 26 27 27 27 27 27 27 27 28 28 27 27 27 27 28 29 30 31 31 32 33 33 33 32 32 32 33 34 35 36 37 37 37 38 38 38 38 38 39 39 39 39 39 39 39 38 38 38 38 39 39 39 39 40 40
38 38 38 37 37 37 38 38 38 38 38 37 37 36 35 35 35 34 34 33 33 32 32 31 31 30 28 27 26 25 25 25 25 26 26 26 26 26 26 26 26 27 27 27 28 29 30 31 31 31 31 32 32 32 32 32 32 32 33 35 36 36 37 37 37 38 38 38 38 38 39 39 39 39 39 39 38 38 38 38 38 38 39 39 39 40
36 36 37 37 38 38 39 39 40 39 38 37 36 36 35 34 34 33 32 31 31 31 30 30 28 26 25 25 24 24 24 24 24 25 25 24 25 25 25 25 26 27 27 28 28 29 29 30 30 30 30 30 31 31 32 32 32 33 33 34 35 36 36 36 36 37 37 37 37 38 38 38 39 39 39 38 38 38 38 38 38 38 38 38 39 39
35 36 37 38 39 40 41 41 41 40 38 37 36 35 34 33 32 31 30 30 29 29 28 26 24 24 23 23 23 23 23 23 23 24 24 24 24 25 25 26 26 27 27 27 27 27 27 28 28 29 29 30 31 32 32 32 32 33 33 33 33 34 34 35 35 36 36 36 37 37 37 38 38 38 38 38 38 38 37 37 37 37 37 37 37 38
36 37 39 40 40 41 41 40 39 38 37 36 35 34 33 32 31 30 28 28 27 26 25 24 23 23 23 22 22 23 23 23 23 23 24 24 24 24 24 25 25 25 25 26 26 26 27 27 28 28 29 29 30 30 30 30 30 30 31 31 32 32 33 33 34 35 35 36 36 36 37 37 37 37 37 37 37 37 37 36 36 36 36 36 36 36
36 37 38 39 39 39 39 38 37 36 35 34 33 33 32 30 29 28 27 27 26 25 23 23 23 23 23 22 22 23 23 23 23 23 23 23 22 22 23 23 23 23 24 24 25 26 26 26 26 27 27 27 27 27 27 27 28 28 29 30 31 31 32 33 34 34 35 35 35 35 35 36 36 36 36 36 37 36 36 36 35 35 35 35 35 35
36 37 37 38 37 37 36 35 34 33 32 32 32 31 30 29 28 28 27 27 25 24 23 23 23 23 23 23 23 23 23 23 22 22 22 21 21 21 22 22 22 23 23 23 23 24 24 24 24 24 25 25 24 24 25 25 26 27 29 30 30 31 31 32 33 33 33 34 34 34 34 34 35 35 35 35 36 36 35 35 35 34 34 34 34 34
35 35 35 35 35 34 34 33 32 31 31 30 30 30 29 28 27 27 27 26 25 24 23 23 23 23 23 22 22 22 21 21 21 20 20 20 20 21 22 22 22 22 21 21 21 21 21 22 22 22 22 22 23 23 24 24 25 27 28 28 29 29 29 30 31 31 31 32 32 32 32 33 33 34 34 34 35 35 35 34 34 33 33 33 33 34
34 33 33 33 32 32 31 30 30 29 29 29 29 28 27 27 27 27 26 25 24 24 24 23 23 23 22 21 20 19 19 20 20 20 20 20 20 21 22 22 22 22 21 20 19 19 20 20 20 20 21 21 22 23 23 24 25 25 26 26 26 26 27 28 28 29 29 29 29 29 30 30 31 32 32 33 33 33 33 33 33 33 33 33 33 33
33 32 31 31 31 30 29 29 28 28 27 27 27 27 26 26 26 26 25 24 24 24 24 24 23 23 22 21 20 19 19 20 21 21 21 20 21 21 21 21 21 21 20 20 19 19 19 19 19 19 20 21 21 22 22 23 23 24 24 24 25 25 25 26 27 27 27 27 26 26 26 26 27 28 29 30 31 31 32 32 32 32 32 31 31 31
31 31 30 30 30 29 28 28 27 27 26 26 26 26 25 25 25 25 24 24 24 24 24 23 23 22 21 21 20 19 20 20 21 21 21 20 20 20 21 21 20 20 20 20 19 19 19 19 19 19 19 20 20 20 21 22 22 22 23 23 23 23 24 24 25 25 24 24 23 23 22 22 23 24 25 26 28 29 29 30 30 30 30 29 29 28
30 30 30 29 28 28 27 27 26 26 26 25 25 25 24 24 24 24 23 23 23 23 23 22 22 21 20 19 19 19 20 20 20 20 20 20 20 20 20 20 20 20 19 19 18 18 18 19 18 18 18 18 19 19 20 20 21 21 21 22 22 22 23 23 23 23 23 22 22 21 20 19 19 19 21 22 23 25 26 27 27 27 27 27 27 26
29 29 28 28 27 26 26 26 25 25 25 24 24 24 24 23 23 23 23 23 23 22 22 22 22 21 20 18 18 18 19 20 20 20 20 20 19 19 20 19 19 19 18 17 17 17 17 17 18 18 17 17 18 18 18 19 19 20 20 20 20 21 21 22 22 22 21 21 20 20 19 18 18 17 18 18 19 20 22 23 24 24 25 25 25 25
28 27 27 26 25 25 25 24 24 24 24 23 23 23 23 23 23 23 23 23 23 22 22 22 22 21 20 19 19 19 20 21 21 21 20 19 19 19 19 19 18 18 17 17 17 16 16 16 17 17 17 17 17 17 17 17 17 18 19 19 19 19 20 20 20 20 20 20 20 19 18 17 17 16 16 16 17 17 18 19 20 21 22 23 23 24
26 26 25 25 24 24 23 23 23 23 23 23 23 23 23 24 23 23 23 23 23 23 23 22 22 21 20 19 19 20 21 21 21 20 20 19 19 19 18 18 18 18 17 17 16 16 15 15 16 16 16 16 16 15 15 16 16 17 17 17 17 17 18 19 19 19 19 19 19 18 18 17 16 16 16 16 16 16 17 17 18 19 20 21 21 22
24 24 24 23 23 23 22 22 22 23 23 23 24 24 24 24 24 24 24 24 24 23 23 22 21 20 20 20 20 20 20 20 20 20 19 19 18 18 18 18 18 17 17 16 16 16 15 15 15 15 15 15 15 15 15 15 15 16 16 16 15 16 16 17 18 18 18 18 18 18 17 17 16 16 16 16 16 16 16 17 17 18 18 19 19 20
23 23 22 22 22 22 22 22 23 23 24 24 24 25 25 25 25 24 24 23 23 23 22 21 20 20 20 20 20 20 20 19 19 19 18 18 17 17 17 17 17 16 16 16 16 16 15 15 15 14 14 14 15 15 15 15 15 15 15 14 14 14 15 16 16 16 17 17 17 17 17 16 16 16 15 16 16 16 16 16 17 17 18 18 18 19
22 22 22 22 22 22 23 23 23 24 24 25 25 25 25 24 24 23 23 23 22 22 21 20 19 19 19 19 18 18 18 17 17 17 16 16 16 15 15 15 15 15 15 15 16 16 16 15 15 15 15 14 14 14 14 14 15 14 14 13 13 13 14 14 15 15 15 16 16 16 16 16 15 15 15 15 15 16 16 16 17 17 18 18 18 19
22 22 22 23 23 23 23 24 24 24 25 25 25 24 24 23 23 22 22 22 22 21 20 19 18 18 17 17 17 16 16 15 15 15 14 14 14 14 14 14 14 14 14 15 15 15 15 15 15 15 15 15 15 15 14 14 14 14 13 13 13 13 14 14 13 14 14 15 15 16 16 15 15 14 14 14 15 15 16 16 16 16 17 17 18 18
23 23 23 23 24 24 24 24 25 25 25 24 24 23 22 22 22 22 22 22 21 20 19 18 18 17 17 16 15 15 14 13 13 13 12 12 12 12 12 13 13 13 13 14 14 14 15 15 15 15 15 15 15 14 14 14 14 13 13 13 13 14 14 14 13 13 14 14 15 15 15 15 15 14 14 14 14 14 15 15 15 16 16 16 16 17
23 24 24 24 24 24 25 25 25 24 24 23 23 22 22 21 21 21 21 21 20 20 19 18 17 16 16 15 14 13 12 12 11 11 10 10 10 11 11 11 11 12 12 13 13 14 14 15 15 15 15 15 14 14 14 13 13 13 13 13 13 14 14 14 14 14 14 15 15 15 15 15 15 14 14 13 13 13 14 14 14 15 15 16 16 15
24 24 24 25 25 25 24 24 24 24 23 23 22 22 21 21 20 20 19 19 18 18 18 17 16 15 14 13 12 11 11 10 9 9 9 9 9 10 10 10 11 11 11 12 12 13 13 14 14 14 14 14 14 14 13 13 13 13 13 13 13 14 15 15 15 15 15 15 15 16 16 15 15 14 14 13 13 13 13 14 14 15 16 16 16 17
24 25 25 25 25 24 24 24 24 23 23 22 22 21 20 20 19 18 18 17 17 17 16 16 14 13 11 10 10 9 9 9 8 8 8 8 9 9 9 9 10 10 10 11 11 11 12 12 12 12 12 13 13 13 12 12 12 13 13 13 14 15 15 16 16 15 15 15 15 15 15 15 14 14 13 13 13 14 14 15 16 16 17 17 18 19
24 24 24 24 24 24 24 24 23 23 22 22 21 20 20 19 18 17 16 16 16 15 15 14 12 11 9 9 8 8 8 8 7 7 7 8 8 8 8 8 9 9 9 9 9 9 10 10 10 10 11 11 11 11 11 11 12 12 13 14 15 16 16 16 16 16 16 16 15 15 15 14 14 14 14 14 14 15 15 16 17 17 18 18 20 21
25 24 24 24 24 24 23 23 22 22 21 20 20 19 18 17 16 16 15 15 14 14 13 12 10 9 9 8 8 8 8 7 7 7 7 7 7 7 7 7 7 7 7 7 7 7 7 7 8 8 9 9 9 9 10 11 11 12 13 14 16 17 17 17 17 17 16 16 16 15 15 15 15 15 15 15 15 16 16 17 17 17 18 19 20 21
24 24 24 23 23 23 22 22 21 20 20 19 19 18 17 16 15 15 14 14 13 12 11 10 9 9 8 8 8 8 7 7 7 7 6 6 6 5 5 5 5 5 5 5 5 5 5 5 5 6 6 7 8 8 9 10 11 12 13 15 16 17 18 18 17 17 17 16 16 16 16 16 16 16 16 17 17 17 16 16 17 17 18 18 19 20
24 24 23 23 22 21 21 20 19 19 18 18 18 17 16 15 14 14 13 13 12 11 10 9 9 8 8 8 7 7 7 6 6 6 6 5 5 4 3 3 3 3 3 3 3 3 3 3 3 4 4 6 7 8 9 10 11 12 13 15 16 17 18 18 17 17 17 17 17 16 16 16 17 17 17 18 18 17 17 16 16 16 17 18 19 19
23 23 22 21 20 20 19 19 18 17 17 17 16 15 15 14 13 13 12 12 11 10 10 9 9 8 8 7 7 6 6 5 5 5 5 5 4 3 2 2 1 1 1 2 2 3 3 4 4 4 4 5 6 7 9 10 11 12 13 15 16 17 18 18 17 17 17 17 17 17 17 17 17 17 18 18 18 17 17 16 16 16 16 17 18 18
22 22 21 20 19 18 18 17 16 16 16 15 15 14 14 13 13 12 12 11 11 10 9 9 9 8 7 7 6 6 6 5 5 5 5 4 4 3 2 2 1 1 1 2 3 3 4 4 4 5 5 5 5 7 9 10 12 13 14 15 16 17 17 18 17 17 17 17 17 17 17 17 17 17 18 18 18 17 17 16 16 16 16 16 17 18
Wind_Direction
296 296 296 295 295 294 293 292 292 291 290 289 288 287 286 285 284 283 282 281 281 280 279 279 278 278 277 276 276 275 274 274 273 273 272 272 271 271 270 270 270 270 270 269 269 268 267 267 266 266 265 265 264 263 262 261 259 258 258 257 257 256 256 255 255 254 254 254 254 254 253 252 250 249 247 246 246 245 245 246 246 246 247 247 246 246
297 297 297 297 296 295 294 294 293 292 291 291 289 288 288 287 286 285 284 283 282 281 280 280 279 278 277 277 276 275 274 274 273 273 272 271 271 270 270 270 270 270 270 270 270 269 269 268 267 267 266 266 265 264 263 261 260 259 258 257 256 256 256 256 255 255 254 253 254 254 253 252 251 249 248 247 247 246 246 246 246 246 246 246 246 246
299 299 299 299 298 297 297 296 295 294 293 292 291 290 289 288 287 286 285 284 283 282 281 280 279 279 278 277 276 275 274 274 273 273 272 271 271 270 270 270 270 269 269 269 269 269 269 269 268 268 267 266 265 264 263 261 260 259 258 257 256 256 256 256 256 255 254 253 253 253 253 252 251 249 248 248 247 247 247 246 246 246 246 245 245 246
300 300 300 301 300 299 298 298 297 296 295 293 292 291 291 290 289 287 286 285 284 283 282 280 280 279 277 276 276 275 274 273 273 272 272 271 271 270 270 269 269 269 269 269 269 269 269 269 269 268 268 266 265 264 263 261 260 260 259 258 256 256 256 256 256 255 254 253 252 252 252 252 251 249 248 248 247 247 246 246 246 245 245 245 245 245
301 301 302 302 302 301 300 299 298 297 295 294 292 292 291 291 290 289 288 286 285 284 282 281 279 278 277 276 275 274 273 273 272 272 271 271 270 270 270 270 269 269 269 269 269 269 269 269 269 268 267 266 265 264 263 261 260 260 259 258 257 256 255 255 255 255 254 253 252 251 251 251 250 249 248 247 247 246 246 246 245 245 245 244 244 245
302 302 302 302 302 301 301 300 298 297 295 294 293 293 292 292 291 290 289 288 286 285 283 281 279 277 276 275 274 273 273 272 271 271 270 270 270 270 270 270 269 269 269 269 269 269 269 268 268 268 267 266 265 264 263 262 260 259 258 257 256 255 255 254 254 254 254 253 252 251 250 250 249 249 248 247 246 246 246 246 245 245 244 244 244 244
302 302 303 303 302 301 300 299 298 297 296 295 295 295 294 293 293 291 290 289 287 285 283 281 279 277 276 274 274 273 272 271 271 270 270 269 269 269 269 269 269 269 269 269 269 269 268 268 268 267 267 266 265 264 262 261 260 258 258 257 256 255 254 253 253 253 253 253 252 251 250 249 249 248 248 248 247 246 246 245 245 244 244 244 244 243
302 303 303 303 303 302 300 299 298 298 298 297 297 297 296 295 294 292 291 289 287 286 284 282 280 278 276 275 274 273 272 271 270 270 269 269 269 269 269 268 268 268 268 268 268 268 268 268 268 267 267 266 265 263 261 260 258 257 257 256 255 254 253 253 252 252 253 253 252 251 250 249 248 248 249 249 248 247 246 246 245 244 243 243 242 241
303 303 303 303 303 302 301 300 299 299 299 299 299 298 298 297 295 293 292 290 288 287 285 284 281 279 277 276 274 273 272 271 270 270 269 269 269 268 268 268 268 268 268 268 267 267 267 267 267 267 266 265 263 262 260 258 257 257 256 255 255 254 253 252 251 251 252 252 251 251 250 249 249 249 249 249 249 248 247 246 245 244 243 242 241 240
302 303 303 302 302 301 301 301 300 300 300 299 299 298 298 297 297 295 293 292 290 288 286 284 283 281 279 277 275 273 272 271 271 270 269 269 268 268 268 268 268 267 267 267 267 267 267 266 266 265 264 264 262 261 259 258 257 256 255 255 254 253 252 251 251 250 250 250 250 250 249 249 248 248 249 249 249 248 247 246 245 244 243 242 241 239
302 302 301 301 301 301 301 301 301 301 301 300 299 298 298 297 297 296 295 294 292 290 287 285 283 281 280 278 276 275 273 272 271 270 270 269 269 268 268 268 268 267 267 267 266 266 265 265 264 264 263 262 261 260 259 258 257 256 255 255 254 253 252 251 250 249 249 248 248 248 248 248 248 248 248 248 248 248 248 247 246 245 244 243 241 240
302 302 302 301 301 302 302 302 302 302 302 301 300 300 299 298 298 297 296 295 293 291 288 285 283 281 280 279 278 276 275 274 272 272 271 270 270 269 269 269 269 269 268 267 266 265 264 264 263 262 261 260 259 259 258 258 257 256 255 254 253 252 251 250 249 248 247 246 246 246 246 246 246 247 247 248 248 248 247 247 246 245 245 244 242 241
303 303 303 303 303 303 303 303 303 303 303 302 301 301 300 300 299 298 296 295 293 291 289 286 284 282 281 280 279 278 277 275 274 273 272 271 270 270 270 270 269 269 269 268 267 266 264 263 262 260 259 259 259 258 258 257 255 254 253 252 251 251 250 249 248 247 246 245 245 245 245 245 245 246 246 247 247 248 247 247 246 246 245 244 243 242
304 304 304 304 304 304 304 304 304 304 303 303 302 301 301 301 300 298 297 294 292 291 289 288 286 284 283 282 281 279 278 277 275 274 272 271 270 270 270 270 269 269 269 269 268 266 264 263 261 259 259 258 258 257 256 255 253 252 251 250 250 250 249 249 248 247 246 245 244 244 244 244 245 245 246 247 247 247 247 246 246 245 245 244 243 242
305 305 305 305 305 305 305 305 304 304 303 303 302 302 302 301 300 298 296 294 292 291 290 289 288 286 284 283 282 281 279 278 277 275 274 272 271 271 271 271 270 270 269 268 267 266 264 262 260 259 258 257 256 256 254 253 252 251 250 249 249 249 248 248 247 247 246 245 245 244 244 244 245 245 245 246 246 246 246 246 245 245 245 244 243 242
305 305 305 305 305 305 305 304 304 303 303 303 303 303 302 301 300 299 296 294 293 292 292 291 289 287 285 283 282 282 281 280 279 277 276 275 273 273 272 272 271 270 269 268 267 266 264 263 261 259 258 257 256 255 253 252 251 250 250 249 248 248 247 247 247 246 246 245 245 245 245 245 245 245 245 245 245 245 245 245 245 244 244 244 243 242
305 305 305 305 305 305 304 304 303 303 303 303 303 303 302 302 301 299 297 295 294 293 293 292 290 287 285 284 284 284 284 283 281 279 277 276 275 274 273 273 272 271 269 268 267 266 264 263 261 259 258 256 255 254 253 252 251 250 249 248 247 247 246 246 246 246 245 245 246 246 246 246 245 245 244 244 244 244 244 244 244 244 243 243 243 242
304 304 305 305 305 304 304 303 303 303 303 304 304 303 303 302 301 299 297 295 295 294 294 291 289 286 286 286 286 287 286 284 282 280 278 277 276 275 274 272 271 270 269 268 266 265 264 262 261 259 258 257 256 255 254 253 252 251 249 247 246 246 246 246 246 246 246 246 247 247 247 247 246 246 245 244 244 244 244 243 243 243 243 242 242 242
303 303 304 304 304 303 303 303 303 304 304 305 305 304 303 302 300 299 297 296 295 295 294 291 289 287 287 288 288 288 287 285 282 280 278 277 276 275 273 272 270 269 268 267 266 265 263 262 260 259 258 257 256 255 254 253 252 251 249 248 247 246 246 246 246 246 247 247 248 248 248 248 248 247 246 245 245 245 244 244 243 243 243 242 242 241
302 303 303 303 303 303 303 303 304 304 305 305 305 304 303 302 300 299 297 296 296 296 294 292 290 289 289 289 289 288 287 284 282 280 278 277 276 275 273 272 270 269 268 267 265 264 262 261 259 258 256 254 253 253 253 252 251 251 250 249 248 247 246 246 247 247 247 248 248 249 249 249 248 248 247 246 246 245 245 245 244 244 243 242 241 241
302 302 302 302 303 303 303 304 304 305 305 305 304 303 302 301 300 298 297 297 297 296 294 292 291 291 291 290 289 288 287 285 282 280 277 275 274 274 273 272 270 269 268 267 265 263 262 260 259 257 256 255 255 254 254 254 254 254 253 251 249 248 248 247 247 248 248 249 249 249 249 249 248 248 247 247 246 246 245 245 245 244 243 242 241 240
302 302 302 302 303 303 304 304 305 305 305 305 304 303 302 301 300 298 297 297 296 295 293 292 292 291 291 289 288 287 286 284 282 280 277 276 274 274 273 272 270 269 267 265 264 264 263 263 262 261 259 259 258 257 255 254 253 252 251 250 250 249 248 248 248 248 248 248 248 248 248 248 248 248 247 247 246 246 246 245 245 244 243 241 240 239
302 302 302 303 303 304 304 305 305 306 305 304 303 301 300 299 298 298 297 296 295 293 293 292 292 291 289 288 287 287 286 285 282 280 278 277 275 275 274 272 270 268 266 265 266 267 267 267 265 264 262 261 260 258 256 253 250 249 249 249 249 249 248 248 248 248 248 248 248 248 248 247 247 247 247 247 246 246 245 245 244 243 242 240 239 238
303 303 304 304 304 305 305 306 306 306 305 304 302 301 300 298 297 296 295 294 294 293 292 292 290 289 288 287 287 287 287 286 284 281 278 276 275 275 274 273 272 270 269 268 268 268 268 267 266 265 263 262 261 259 256 253 251 249 248 248 249 249 249 249 248 248 248 248 247 247 247 247 247 246 246 246 245 245 244 244 243 242 241 239 238 237
305 304 304 304 305 305 305 305 305 304 304 303 302 301 300 299 298 296 295 294 293 293 292 291 289 288 288 289 289 289 288 287 284 282 279 277 276 276 276 275 275 274 272 271 269 268 267 266 265 264 262 261 260 259 257 255 253 251 250 250 250 250 249 249 248 248 248 248 247 247 247 246 246 245 245 245 244 244 243 243 242 241 239 238 236 235
305 304 304 304 304 304 304 304 304 303 303 302 302 301 301 300 299 298 296 295 294 293 292 291 290 290 291 291 291 290 289 287 285 283 281 280 279 279 278 277 276 274 273 271 270 268 267 265 264 263 262 260 260 259 258 256 254 252 251 250 250 249 249 249 248 248 248 248 248 247 246 246 245 244 244 243 243 242 242 241 240 239 238 237 236 235
305 304 304 304 304 304 304 304 304 303 303 302 302 302 301 301 300 299 297 297 296 295 294 293 292 292 293 293 292 290 289 287 286 284 283 282 280 279 279 278 276 274 273 271 270 269 268 266 264 263 261 260 258 257 256 254 253 252 251 251 250 250 249 249 249 249 249 249 248 247 246 245 244 243 242 242 241 241 240 240 240 239 238 237 236 235
306 305 305 305 304 304 304 304 304 304 304 303 303 302 302 301 300 300 299 298 297 296 295 294 294 294 294 293 292 290 289 287 286 285 284 282 280 279 279 279 278 276 274 273 271 269 267 265 263 262 260 258 256 254 253 252 252 252 252 252 251 251 250 250 250 249 249 249 248 247 246 245 243 242 241 240 239 239 239 239 239 239 238 237 236 235
307 306 305 305 305 305 305 305 305 305 305 304 303 303 302 301 301 300 300 299 298 297 296 296 296 296 295 293 292 290 288 286 286 285 284 282 280 279 280 280 279 278 276 274 272 269 266 264 262 260 259 257 255 254 253 253 253 253 253 253 252 252 251 250 250 249 249 248 248 247 246 244 243 241 240 239 238 238 238 238 238 238 238 237 236 235
309 308 307 306 306 306 306 306 306 305 305 304 303 302 302 301 300 300 300 299 298 298 298 299 298 298 296 294 292 289 287 286 286 286 285 284 282 281 282 281 280 279 278 275 273 269 266 263 261 259 258 257 256 256 255 255 254 254 254 253 253 252 250 249 249 248 248 248 247 246 245 243 241 240 239 237 237 236 236 237 237 237 237 237 236 236
310 309 308 307 307 307 307 306 306 305 304 304 303 302 301 301 301 300 300 300 300 301 301 301 300 298 296 294 291 288 285 286 287 288 287 285 283 282 282 281 280 279 277 275 272 270 267 263 261 259 258 258 258 257 257 256 255 254 254 253 252 251 250 249 248 247 248 247 247 246 244 242 240 238 237 236 235 235 235 235 235 235 236 236 236 236
310 309 308 308 307 307 307 306 306 305 304 304 303 302 302 301 301 301 301 301 302 303 303 302 300 298 295 292 288 285 284 286 288 289 289 286 284 283 282 281 279 278 276 273 270 268 267 265 262 260 259 259 258 257 256 256 255 253 253 252 252 250 249 247 246 246 246 246 245 244 243 241 239 237 235 234 233 233 232 232 233 233 233 234 234 234
310 309 308 308 307 307 307 306 306 305 305 305 304 303 303 302 302 302 302 303 303 303 303 302 300 298 295 291 287 285 284 286 289 290 289 287 285 283 282 280 279 277 275 272 269 265 263 263 263 262 260 258 257 256 255 255 254 252 251 251 251 249 247 245 243 243 242 241 241 240 241 240 238 236 233 232 231 230 230 229 229 229 229 229 229 229
310 309 308 308 308 307 307 307 307 306 306 306 305 305 305 305 304 305 305 304 304 304 303 302 300 298 296 293 290 287 287 288 289 289 288 286 284 282 281 280 278 276 274 272 268 265 261 260 261 261 260 258 257 256 255 254 252 251 250 250 249 248 246 243 241 239 238 237 236 236 237 237 236 234 231 229 227 226 225 225 224 223 223 223 223 223
310 309 309 309 309 309 309 308 308 308 308 308 307 307 307 307 307 307 306 306 305 304 303 302 300 298 297 295 293 291 290 290 290 289 287 284 282 280 280 278 276 274 272 270 267 264 261 259 259 259 259 258 257 255 254 252 251 249 249 249 248 246 244 241 239 236 234 232 231 232 233 233 233 231 227 224 222 220 219 219 218 217 216 216 216 216
310 310 310 311 311 311 311 311 311 311 311 310 310 310 310 309 309 309 308 307 306 305 304 302 300 298 296 295 293 292 292 292 291 288 286 283 280 278 277 275 274 272 270 268 266 264 261 259 258 258 258 256 255 254 253 250 249 248 248 248 246 245 242 239 235 232 228 226 227 228 229 228 227 225 221 217 214 212 210 210 209 208 208 207 208 209
311 312 312 313 314 314 314 314 314 314 313 313 312 312 311 311 310 309 308 307 306 305 304 302 301 299 297 295 294 293 292 292 290 288 284 282 279 277 275 273 272 271 268 267 266 264 261 260 258 256 255 253 251 250 249 249 249 248 248 247 246 244 240 235 230 226 223 221 221 222 223 222 220 217 214 209 206 203 201 200 199 199 198 198 198 199
314 314 315 316 316 316 316 316 316 315 315 314 313 313 312 311 310 309 308 307 306 304 303 302 301 299 298 297 295 294 292 291 289 286 283 280 278 275 273 272 271 269 267 266 265 264 261 259 257 255 252 250 249 249 249 248 248 247 247 246 244 241 236 230 225 221 217 216 216 216 216 216 214 211 208 205 201 198 196 195 194 192 191 191 190 190
316 317 317 318 318 318 318 317 316 316 315 314 313 312 311 310 309 308 307 306 305 304 302 302 301 300 299 299 298 296 294 291 288 285 282 279 277 274 272 270 269 268 267 265 264 262 260 257 255 253 250 248 247 247 247 246 245 245 245 244 242 238 231 225 221 217 214 211 210 211 211 210 208 205 202 199 196 193 191 191 190 189 189 188 186 185
318 318 318 318 318 318 317 316 316 315 314 313 312 311 311 310 309 308 308 307 306 305 303 303 302 302 301 301 299 297 295 292 288 285 282 279 275 273 270 269 269 268 267 265 262 260 258 255 253 251 249 247 245 244 243 244 243 242 241 239 237 233 227 220 215 212 209 207 206 206 205 204 202 198 195 193 190 188 187 187 187 187 186 185 184 182
319 319 319 319 318 318 317 316 315 314 313 313 312 311 311 311 311 310 310 309 308 307 306 305 305 304 303 302 300 298 296 292 289 286 282 278 275 272 270 268 268 267 266 263 260 257 255 253 251 250 248 247 245 243 242 241 240 238 235 232 230 227 221 214 209 205 203 202 201 200 199 197 195 192 189 187 185 184 183 182 182 182 181 180 180 179
320 319 319 319 318 317 316 316 315 314 313 313 312 312 312 312 312 311 311 310 308 308 308 308 308 307 305 304 302 300 297 294 290 286 282 278 275 273 271 268 266 264 263 260 257 255 253 252 250 249 247 246 243 241 240 239 237 233 229 227 224 219 213 207 202 198 196 195 195 195 193 191 188 186 183 180 179 178 177 176 175 174 174 175 175 176
321 320 319 318 318 317 316 315 315 314 314 313 313 313 313 313 312 311 310 309 308 308 309 310 310 310 308 306 304 302 299 296 292 288 283 279 277 275 273 269 266 262 259 258 256 255 254 253 251 250 248 246 243 241 239 236 232 227 225 222 217 210 202 199 196 193 190 188 188 187 186 184 182 179 177 175 173 173 173 172 172 172 172 173 175 177
321 320 319 318 317 317 316 316 316 315 315 315 314 314 314 313 312 311 310 309 309 310 311 312 312 311 309 307 306 306 303 300 296 291 286 283 280 278 274 270 266 263 260 257 256 256 256 255 253 251 249 247 244 240 237 232 226 222 220 216 210 203 197 194 192 188 184 181 181 181 180 179 177 175 173 172 172 173 174 175 176 177 177 178 179 181
321 320 319 319 318 317 317 317 316 316 316 316 315 315 315 314 313 312 311 311 312 313 314 315 315 314 312 312 313 313 311 308 304 298 292 288 284 279 274 270 267 265 263 260 258 257 257 258 257 255 251 247 243 239 233 227 221 217 215 209 202 196 192 190 188 185 180 177 176 177 177 177 176 176 176 176 177 178 179 179 181 181 182 183 183 184
321 320 320 319 318 318 317 317 318 318 318 318 318 317 317 316 316 315 315 315 316 318 318 319 319 319 319 321 322 322 320 316 311 305 300 295 290 283 276 271 268 267 266 264 262 260 257 256 255 254 251 245 239 232 226 220 215 212 209 203 195 190 186 185 184 182 179 177 177 178 180 181 180 181 181 181 180 180 180 180 180 181 182 182 182 182
322 321 320 319 318 317 317 318 319 319 320 320 320 320 320 320 319 319 320 322 323 324 324 324 325 325 326 328 328 326 323 319 313 308 305 302 297 290 280 274 270 269 267 264 262 260 256 252 249 246 241 235 227 220 216 212 209 206 202 197 191 185 182 180 181 180 179 179 181 183 185 185 184 183 182 180 179 178 178 179 179 179 179 178 177 177
323 322 320 319 318 318 318 319 320 321 322 322 322 323 324 324 325 325 327 329 330 331 331 332 334 335 334 332 330 327 324 320 316 314 314 313 309 301 290 280 274 270 266 260 254 249 244 239 235 230 224 219 213 208 205 204 201 198 195 191 186 181 178 177 177 178 179 180 182 184 186 185 183 181 180 178 177 177 178 178 178 178 177 175 173 172
324 323 321 321 320 320 321 322 322 323 323 324 325 327 329 330 332 333 335 337 338 339 340 341 342 342 340 337 334 332 330 328 328 330 332 332 330 324 312 296 282 271 260 248 234 220 209 204 199 197 196 198 199 198 197 195 193 191 188 185 181 177 174 174 175 176 178 180 181 182 183 182 181 179 178 176 176 177 178 179 179 178 176 175 173 173
326 325 324 324 324 325 325 325 326 326 326 327 329 331 334 338 341 343 344 344 345 346 346 347 347 346 345 343 342 342 344 346 349 353 355 356 357 356 352 340 315 271 231 205 190 179 174 171 168 167 169 173 182 188 190 189 187 185 182 179 176 173 171 172 173 175 177 178 179 180 180 180 180 180 178 177 178 179 181 182 181 179 177 176 176 175
329 329 329 330 330 330 331 331 331 331 331 333 335 338 341 345 348 349 350 350 350 351 351 352 351 351 351 352 354 357 0 5 8 10 10 12 16 20 26 38 60 104 146 157 160 162 164 162 160 158 159 159 166 176 182 183 182 180 178 175 172 170 169 171 173 174 176 177 178 179 179 180 181 182 182 182 183 185 186 186 185 184 181 180 179 178